STARLINK-1210, 45207

Orbit data source: Space-Track

STARLINK-1210, 45207 is a payload satellite owned by SpaceX/Seattle (US) in LEO that was launched on Mon, 17 Feb 2020 UTC via an FALCON 9 launch vehicle from the Air Force Eastern Test Range (AFETR). Payload-class satellites include a variety of spacecraft equipped with specific instruments for various scientific and technological missions. These include communications satellites like Starlink; space stations such as the ISS; scientific satellites like the Hubble; Earth observation satellites from companies like Planet Labs, Umbra, and HawkEye 360; GPS; miniature CubeSats for education and research; and military/defense satellites.

Loading next visibility...
Identifier
45207, 2020-012AF
Orbit
LEO
Country
Flag of USUS
Related business
Manufacturer
SpaceX/Seattle
Mission
Partially operational Commercial Communications
Bus & Motor
STARLINK, Unknown motor
Mass
260 kg wet, ~248 kg dry
Launch date (UTC)
2020-02-17 (6 years ago)
Launch vehicle
FALCON 9
Launch site
Air Force Eastern Test Range (AFETR)
Object type
Payload
Rocket body
Debris
Shape & HBR
Box + 1 Pan, 10.1 m
Radar Cross Section
13.562 m², Large (>1 m²)

Expand to show TLE details & history
Last TLE update: 2 days ago

TLE from 2 days ago
0 STARLINK-1210
1 45207U 20012AF  25340.09759494  .00084283  00000-0  81192-3 0  9993
2 45207  53.0220  12.6108 0003282 150.9257 209.1941 15.65825585322052
Epoch: 2025-12-06T02:20Z
TLE epoch observation values (Epoch: 2025-12-06T02:20:32.202Z)
Latitude
-0.00002°
Longitude
-97.65361°
Altitude
373.698 km
Speed
7.686 km/s
True Right ascension
00h 50m 26s
True Declination
0° 00' 00"
Sunlit
Object was in full shadow at epoch
Visualization orbit readout
Latitude
Unknown
Longitude
Unknown
Altitude
Unknown
Speed
Unknown
Apparent Right ascension
Unknown
Apparent Declination
Unknown
Sunlit
N/A
Visualization observer readout
Local Sidereal Time
20:49:16
Azimuth
Unknown
Elevation
Unknown
Doppler factor
Unknown
Orbital elements
Apogee altitude
373.363 km
Perigee altitude
368.933 km
Semi-major axis
6,749.285 km
Eccentricity
0.00033
Inclination
53.022°
RAAN
12.6108°
Arg. of periapsis
150.9257°
True anomaly
209.17576°
Mean anomaly
209.1941°
Eccentric anomaly
209.18493°
Mean motion
3.91432 °/min
Orbital period
91.97 mins
BSTAR
0.00081192
Loading maneuver chart data...
Computing Atmospheric mass density...

Documentation

Showing up to 5 results
|